Date,TemperatureHighF,TemperatureAvgF,TemperatureLowF,DewpointHighF,DewpointAvgF,DewpointLowF,HumidityHigh,HumidityAvg,HumidityLow,PressureMaxIn,PressureMinIn,WindSpeedMaxMPH,WindSpeedAvgMPH,GustSpeedMaxMPH,PrecipitationSumIn
2013-9-1,88,76,69,79,72,68,96,88,71,29.83,29.75,9,1,23,0.00
2013-9-2,82,73,67,70,67,62,95,81,60,29.95,29.82,8,3,14,0.00
2013-9-3,79,68,59,65,62,58,96,80,54,30.08,29.94,8,1,12,0.00
2013-9-4,84,68,55,68,61,53,96,79,51,30.17,30.08,5,0,9,0.00
2013-9-5,86,70,57,70,63,56,96,80,47,30.22,30.13,3,0,8,0.00
2013-9-6,85,73,59,71,65,58,96,80,49,30.19,30.04,6,1,11,0.00
2013-9-7,88,76,62,75,68,61,96,79,52,30.07,29.93,7,2,16,0.00
2013-9-8,82,76,71,77,72,68,95,88,80,29.99,29.91,5,1,8,0.18
2013-9-9,95,82,73,82,74,71,95,80,53,29.97,29.91,9,3,14,0.00
2013-9-10,95,83,74,77,74,71,93,76,47,30.08,29.97,7,2,14,0.00
2013-9-11,94,81,72,77,72,68,94,75,45,30.13,30.02,7,2,13,0.00
2013-9-12,83,75,63,72,66,54,91,74,54,30.07,29.96,8,2,14,0.03
2013-9-13,72,63,54,58,53,46,94,71,42,30.13,30.03,12,4,20,0.00
2013-9-14,74,59,44,55,48,43,94,70,39,30.18,30.07,4,0,10,0.00
2013-9-15,78,65,50,63,54,47,93,71,44,30.11,30.00,8,2,18,0.00
2013-9-16,70,64,56,63,59,53,94,83,69,30.27,30.08,12,6,19,0.00
2013-9-17,76,66,55,66,58,52,92,77,54,30.27,30.09,6,1,12,0.00
2013-9-18,82,72,63,73,67,60,96,85,70,30.11,29.98,9,4,15,0.53
2013-9-19,88,78,72,75,72,70,94,81,59,30.01,29.87,10,7,19,0.04
2013-9-20,77,70,61,72,68,57,96,92,84,29.92,29.84,8,2,13,0.18
2013-9-21,70,60,52,57,53,50,94,79,54,29.95,29.87,10,3,19,0.01
2013-9-22,75,60,48,57,51,47,96,76,42,30.04,29.94,5,1,13,0.01
2013-9-23,74,62,49,55,51,47,95,71,40,30.07,29.97,8,2,16,0.00
2013-9-24,79,66,53,64,58,50,92,76,54,29.99,29.83,8,2,16,0.17
2013-9-25,82,70,61,68,63,59,96,82,54,29.88,29.81,6,1,11,0.00
2013-9-26,82,70,60,66,61,54,95,74,47,30.04,29.88,6,1,11,0.00
2013-9-27,80,68,51,61,57,49,94,70,47,30.14,30.03,9,2,16,0.00
2013-9-28,82,70,59,66,60,56,90,71,50,30.10,29.97,17,6,27,0.00
2013-9-29,75,66,56,63,59,54,95,80,49,30.05,29.96,9,2,13,0.20
2013-9-30,74,65,56,66,62,55,96,91,73,30.01,29.92,10,2,17,0.01